Skip Page Navigation
NASA JPL Caltech
NASA Logo - Jet Propulsion Laboratory + View the NASA Portal
+ Center for Near-Earth Object Studies
JPL Home Earth Solar System Stars & Galaxies Technology
JPL Solar System Dynamics
BODIES ORBITS EPHEMERIDES TOOLS PHYSICAL DATA DISCOVERY FAQ SITE MAP
IMPORTANT: The SSD Announcement email list is now available. Major changes are coming in the near future, including possible hostname and/or URL changes. To be notified of such changes, subscribe to this email list.

Please visit this page for more details.


JPL Small-Body Database Browser
Search: [ help ]  
215217 (2000 UX16)
Classification: Main-belt Asteroid          SPK-ID: 2215217
Ephemeris | Orbit Diagram | Orbital Elements | Mission Design | Physical Parameters | Discovery Circumstances ]

[ show orbit diagram ]
Orbital Elements at Epoch 2458600.5 (2019-Apr-27.0) TDB
Reference: JPL 9 (heliocentric ecliptic J2000)
 Element Value Uncertainty (1-sigma)   Units 
e .1389163272467198 5.2488e-08  
a 2.247491129925139 1.4811e-08 au
q 1.935277916636358 1.1795e-07 au
i 4.059705572994529 5.2568e-06 deg
node 41.33623453212478 8.1148e-05 deg
peri 344.3659331793921 8.4509e-05 deg
M 187.2612333105371 2.6276e-05 deg
tp 2459191.017428959005
(2020-Dec-07.51742896)
9.3891e-05 TDB
period 1230.68074699997
3.37
1.2165e-05
3.331e-08
d
yr
n .2925210302327163 2.8915e-09 deg/d
Q 2.559704343213919 1.6868e-08 au
  Orbit Determination Parameters
   # obs. used (total)      390  
   data-arc span      6772 days (18.54 yr)  
   first obs. used      2000-10-24  
   last obs. used      2019-05-10  
   planetary ephem.      DE431  
   SB-pert. ephem.      SB431-N16  
   condition code      0  
   norm. resid. RMS      .58514  
   source      ORB  
   producer      Otto Matic  
   solution date      2019-May-30 08:21:51  

Additional Information
 Earth MOID = .93908 au 
 Jupiter MOID = 2.88 au 
 T_jup = 3.614 
[ show covariance matrix ]

Ephemeris | Orbit Diagram | Orbital Elements | Mission Design | Physical Parameters | Discovery Circumstances ]

Physical Parameter Table
Parameter Symbol Value Units Sigma Reference Notes
absolute magnitude H 16.9   n/a MPO437029  

215217 (2000 UX16)          Discovered 2000-Oct-30 by Roe, J. M. at Oaxaca
Reference: 20090607/Numbers.arcLast Updated: 2009-06-08
Ephemeris | Orbit Diagram | Orbital Elements | Mission Design | Physical Parameters | Discovery Circumstances ]
ABOUT SSD CREDITS/AWARDS PRIVACY/COPYRIGHT GLOSSARY LINKS
FirstGov 2019-Dec-14 09:06 UT
(server date/time)  
NASA Home Page
Site Manager:   Ryan S. Park
Webmaster  Alan B. Chamberlin